Printer-friendly version

IAU Minor Planet Center

Minor Planet Center

MPEC 2001-V49: 2001 VK5

The following Minor Planet Electronic Circular may be linked-to from your own Web pages, but must not otherwise be redistributed electronically.


Read MPEC 2001-V48 Read MPEC 2001-V50


M.P.E.C. 2001-V49                                Issued 2001 Nov. 13, 19:00 UT

     The Minor Planet Electronic Circulars contain information on unusual
         minor planets and routine data on comets.  They are published
   on behalf of Commission 20 of the International Astronomical Union by the
          Minor Planet Center, Smithsonian Astrophysical Observatory,
                          Cambridge, MA 02138, U.S.A.

             Prepared using the Tamkin Foundation Computer Network

                              MPC@CFA.HARVARD.EDU
          URL http://cfa-www.harvard.edu/iau/mpc.html  ISSN 1523-6714

                                   2001 VK5

Observations:
     K01V05K* C2001 11 11.43821 08 51 42.94 +32 41 16.8          19.6        704
     K01V05K  C2001 11 11.45269 08 51 41.96 +32 41 58.6          20.0        704
     K01V05K  C2001 11 11.46732 08 51 41.06 +32 42 42.4          20.1        704
     K01V05K  C2001 11 11.48179 08 51 40.08 +32 43 24.1          20.0        704
     K01V05K  C2001 11 11.49627 08 51 39.08 +32 44 06.4          19.8        704
     K01V05K  C2001 11 12.42597 08 50 42.18 +33 29 27.1          18.1        704
     K01V05K  C2001 11 12.42609 08 50 42.18 +33 29 27.9          17.9        704
     K01V05K  C2001 11 12.43102 08 50 41.85 +33 29 43.0          18.1        704
     K01V05K  C2001 11 12.44035 08 50 41.14 +33 30 09.6          18.6        704
     K01V05K  C2001 11 12.44047 08 50 41.12 +33 30 10.5          18.6        704
     K01V05K  C2001 11 12.44548 08 50 40.79 +33 30 25.7          18.8        704
     K01V05K  C2001 11 12.45475 08 50 40.13 +33 30 52.4          18.6        704
     K01V05K  C2001 11 12.45487 08 50 40.10 +33 30 53.2          18.6        704
     K01V05K  C2001 11 12.45960 08 50 39.81 +33 31 07.0          18.8        704
     K01V05K  C2001 11 12.46915 08 50 39.11 +33 31 35.3          18.6        704
     K01V05K  C2001 11 12.46927 08 50 39.09 +33 31 35.4          18.5        704
     K01V05K  C2001 11 12.47363 08 50 38.75 +33 31 49.1          18.8        704
     K01V05K  C2001 11 12.48354 08 50 38.02 +33 32 17.3          18.3        704
     K01V05K  C2001 11 12.48366 08 50 38.03 +33 32 18.0          18.6        704
     K01V05K  C2001 11 12.48779 08 50 37.74 +33 32 30.6          18.7        704

Observer details:
704 Lincoln Laboratory ETS, New Mexico.  Observers M. Blythe, F. Shelly,
    M. Bezpalko, R. Huber, L. Manguso, S. Adams, J. Piscitelli.  Measurers
    J. Stuart, R. Sayer, J. B. Evans, H. Viggh.  1.0-m f/2.15 reflector + CCD.

Orbital elements:
2001 VK5                                                             PHA 0.003
Epoch 2001 Nov. 7.0 TT = JDT 2452220.5                  MPC
M  62.51052              (2000.0)            P               Q
n   0.84116416     Peri.  247.56486     +0.50705807     +0.80525029
a   1.1114302      Node    56.57875     -0.59112505     +0.58440775
e   0.5370671      Incl.   21.60718     -0.62726651     +0.10019760
P   1.17           H   17.4           G   0.15
From 20 observations 2001 Nov. 11-12.

Ephemeris:
2001 VK5                 a,e,i = 1.11, 0.54, 22                  q = 0.5145
Date    TT    R. A. (2000) Decl.     Delta      r     Elong.  Phase     V
2001 11 07    08 55.22   +29 09.9    0.473    1.145    96.4    59.3    18.2
2001 11 17    08 44.66   +37 17.2    0.462    1.226   110.0    49.2    18.0
2001 11 27    08 21.55   +45 44.6    0.460    1.301   123.9    39.0    17.8
2001 12 07    07 40.23   +53 16.7    0.475    1.369   136.2    29.9    17.8
2001 12 17    06 41.05   +58 04.2    0.513    1.429   143.5    24.2    17.9
2001 12 27    05 39.73   +59 14.3    0.574    1.484   143.3    23.3    18.2
2002 01 06    04 54.84   +57 51.1    0.656    1.532   137.4    25.7    18.6
2002 01 16    04 30.15   +55 30.3    0.754    1.574   129.4    28.9    19.0
2002 01 26    04 20.87   +53 08.6    0.864    1.610   121.1    31.6    19.5
2002 02 05    04 21.79   +51 06.5    0.981    1.641   113.1    33.6    19.8
2002 02 15    04 29.43   +49 26.3    1.102    1.665   105.5    34.9    20.2
2002 02 25    04 41.67   +48 04.8    1.224    1.684    98.5    35.5    20.4
2002 03 07    04 57.11   +46 56.7    1.345    1.698    91.9    35.7    20.7
2002 03 17    05 14.91   +45 57.0    1.462    1.706    85.7    35.6    20.8
2002 03 27    05 34.50   +45 01.4    1.574    1.708    79.8    35.1    21.0
2002 04 06    05 55.42   +44 06.0    1.679    1.705    74.2    34.4    21.1
2002 04 16    06 17.36   +43 07.7    1.776    1.697    68.9    33.5    21.2
2002 04 26    06 40.09   +42 03.8    1.863    1.683    63.9    32.5    21.3

Timothy B. Spahr             (C) Copyright 2001 MPC           M.P.E.C. 2001-V49

Read MPEC 2001-V48 Read MPEC 2001-V50


Our Web policy. Index to the CBAT/MPC/ICQ pages.


Valid HTML 4.01!